FENGYUN 1C DEB

Satellite information

Favourite Embed

Satellite Type and Status

DEBRISIN ORBIT

Key statistics

Satellite FENGYUN 1C DEB at a glance.

Uptime

9664

Days in orbit

Revolutions

≈ 14.0

Per day

Orbit

SSO

Sun Synchronous Orbit

Inclination

98.4

Latest

Satellite identification and parameters

Extended collection of information and parameters for FENGYUN 1C DEB.

Object identification

Identified? True

Debris? True

Object name: FENGYUN 1C DEB

International designator: 1999-025AAB

Object number (NORAD): 30314

Object ID (CCSDS): 30314

Country: PEOPLES REPUBLIC OF CHINA (PRC)

Current information (Y/N): Y

RCS size: SMALL

Orbital parameters

Period: 102.789 minutes

Inclination: 98.3807 deg

SMA: 7268.708 km

Apoapsis: 994.977 km

Periapsis: 786.169 km

RAAN: 130.5153 deg

Eccentricy: 0.01436354

Argument of periapsis: 142.0795 deg

Mean anomaly: 219.0592 deg

Mean motion: 14.00931594 rev/day

Mean motion (dot): 0.0000275 rev/day2

B* drag term: 0.0017034395 1/REarth

Two-line elements (TLE)

Creation date: Oct. 23, 2025, 2:46 a.m.

Reference frame: TEME

Reference center: EARTH

Epoch: Oct. 22, 2025, 11:37 a.m. UTC

TLE line 0: 0 FENGYUN 1C DEB

TLE line 1: 1 30314U 99025AAB 25295.48465906 .00002750 00000-0 17034-2 0 9992

TLE line 2: 2 30314 98.3807 130.5153 0143635 142.0795 219.0592 14.00931594953917

Live tracking on map

Real-time ground track for satellite FENGYUN 1C DEB.

In-orbit conjunctions

A list of the most updated potential collisions computed for object FENGYUN 1C DEB.

Target Orbit TCA Probability of collision Miss distance Type
CZ-2D DEB SSO 2025-10-05 03:56:17 0.0001867702 86.0 (m) DEBRIS
SL-8 R/B LEO 2025-03-06 18:25:06 0.0001174531 189.0 (m) ROCKET BODY
CZ-6A DEB SSO 2025-02-28 13:58:54 0.0001091738 103.0 (m) DEBRIS

Associated space launch

Chinese polar orbiting meteorological satellite

FENGYUN 1C DEB was lifted into orbit during the mission ‘Long March 4B | Feng Yun 1C’, on board a Long March 4B space rocket.

The launch took place on May 10, 1999, 1:33 a.m. from Launch Complex 7.

For more information about the launch, click the button.

Launch to space Long March 4B | Feng Yun 1C
Long March 4B | Feng Yun 1C

Agency: N/A

Status: Launch Successful

Launch date: May 10, 1999, 1:33 a.m. UTC

Rocket: Long March 4B

Launch pad: Launch Complex 7

Location: Taiyuan Satellite Launch Center, People's Republic of China

...

Latest news about this satellite

There are no fresh news available about this satellite. Check back as we update our databases every day.


Newsletter sign-up

Weekly statistics, charts and insights to help you stay on top of the space industry.